STARLINK-3783, 52282

Orbit data source: Space-Track

STARLINK-3783, 52282 is a payload satellite owned by SpaceX/Seattle (US) in LEO that was launched on Thu, 21 Apr 2022 UTC via an FALCON 9 launch vehicle from the Air Force Eastern Test Range (AFETR). Payload-class satellites include a variety of spacecraft equipped with specific instruments for various scientific and technological missions. These include communications satellites like Starlink; space stations such as the ISS; scientific satellites like the Hubble; Earth observation satellites from companies like Planet Labs, Umbra, and HawkEye 360; GPS; miniature CubeSats for education and research; and military/defense satellites.

Loading next visibility...
Identifier
52282, 2022-041X
Orbit
LEO
Country
Flag of USUS
Related business
Manufacturer
SpaceX/Seattle
Mission
Operational Commercial Communications
Bus & Motor
STARLINK, Unknown motor
Mass
297 kg wet, ~275 kg dry
Launch date (UTC)
2022-04-21 (4 years ago)
Launch vehicle
FALCON 9
Launch site
Air Force Eastern Test Range (AFETR)
Object type
Payload
Rocket body
Debris
Shape & HBR
Box + 1 Pan, 10.1 m
Radar Cross Section
11.087 m², Large (>1 m²)

Expand to show TLE details & history
Last TLE update: 9 hours ago

TLE from 9 hours ago
0 STARLINK-3783
1 52282U 22041X   26130.12109126  .00001691  00000-0  12434-3 0  9996
2 52282  53.2153 183.3446 0001322  83.2755 276.8387 15.08837822223773
Epoch: 2026-05-10T02:54Z
TLE epoch observation values (Epoch: 2026-05-10T02:54:22.284Z)
Latitude
-0.00009°
Longitude
-88.17704°
Altitude
540.539 km
Speed
7.593 km/s
True Right ascension
12h 13m 22s
True Declination
0° 00' 00"
Sunlit
Object was in full shadow at epoch
Visualization orbit readout
Latitude
Unknown
Longitude
Unknown
Altitude
Unknown
Speed
Unknown
Apparent Right ascension
Unknown
Apparent Declination
Unknown
Sunlit
N/A
Visualization observer readout
Local Sidereal Time
20:35:29
Azimuth
Unknown
Elevation
Unknown
Doppler factor
Unknown
Orbital elements
Apogee altitude
540.91 km
Perigee altitude
539.081 km
Semi-major axis
6,918.132 km
Eccentricity
0.00013
Inclination
53.2153°
RAAN
183.3446°
Arg. of periapsis
83.2755°
True anomaly
276.82366°
Mean anomaly
276.8387°
Eccentric anomaly
276.83118°
Mean motion
3.7719 °/min
Orbital period
95.44 mins
BSTAR
0.00012434
Loading maneuver chart data...
Computing Atmospheric mass density...
Loading historical data...
Loading historical data...
Loading historical data...
Loading historical data...
Loading historical data...
Loading historical data...
Loading historical data...

Documentation

Showing up to 5 results
|